date,time,SUV Intensity [MED/Hr],UV Index,Daily total [MED],Since Last [MED]
24/03/2022,00:07:06,0.000,0.0,0.0,0.0
24/03/2022,00:08:05,0.000,0.0,0.0,0.0
24/03/2022,00:09:05,0.001,0.0,0.0,0.0
24/03/2022,00:10:05,0.000,0.0,0.0,0.0
24/03/2022,00:11:05,-0.001,0.0,0.0,0.0
24/03/2022,00:12:05,0.000,0.0,0.0,0.0
24/03/2022,00:13:14,0.001,0.0,0.0,0.0
24/03/2022,00:14:04,0.000,0.0,0.0,0.0
24/03/2022,00:15:05,0.001,0.0,0.0,0.0
24/03/2022,00:16:05,0.000,0.0,0.0,0.0
24/03/2022,00:17:05,0.001,0.0,0.0,0.0
24/03/2022,00:18:05,0.001,0.0,0.0,0.0
24/03/2022,00:19:05,-0.001,0.0,0.0,0.0
24/03/2022,00:20:05,0.000,0.0,0.0,0.0
24/03/2022,00:21:05,0.001,0.0,0.0,0.0
24/03/2022,00:22:05,0.001,0.0,0.0,0.0
24/03/2022,00:23:05,-0.001,0.0,0.0,0.0
24/03/2022,00:24:05,0.000,0.0,0.0,0.0
24/03/2022,00:25:05,0.000,0.0,0.0,0.0
24/03/2022,00:26:13,0.000,0.0,0.0,0.0
24/03/2022,00:27:12,0.000,0.0,0.0,0.0
24/03/2022,00:28:05,0.000,0.0,0.0,0.0
24/03/2022,00:29:05,0.000,0.0,0.0,0.0
24/03/2022,00:30:07,0.000,0.0,0.0,0.0
24/03/2022,00:31:04,-0.001,0.0,0.0,0.0
24/03/2022,00:32:15,-0.000,0.0,0.0,0.0
24/03/2022,00:34:06,0.000,0.0,0.0,0.0
24/03/2022,00:35:05,0.000,0.0,0.0,0.0
24/03/2022,00:36:05,0.000,0.0,0.0,0.0
24/03/2022,00:37:05,0.000,0.0,0.0,0.0
24/03/2022,00:38:05,0.000,0.0,0.0,0.0
24/03/2022,00:39:05,0.000,0.0,0.0,0.0
24/03/2022,00:40:05,0.000,0.0,0.0,0.0
24/03/2022,00:41:14,0.000,0.0,0.0,0.0
24/03/2022,00:42:05,-0.000,0.0,0.0,0.0
24/03/2022,00:43:06,0.001,0.0,0.0,0.0
24/03/2022,00:44:05,0.001,0.0,0.0,0.0
24/03/2022,00:45:05,0.001,0.0,0.0,0.0
24/03/2022,00:46:05,0.001,0.0,0.0,0.0
24/03/2022,00:47:05,0.000,0.0,0.0,0.0
24/03/2022,00:48:05,0.001,0.0,0.0,0.0
24/03/2022,00:49:07,0.000,0.0,0.0,0.0
24/03/2022,00:50:05,-0.001,0.0,0.0,0.0
24/03/2022,00:51:14,0.001,0.0,0.0,0.0
24/03/2022,00:52:05,0.001,0.0,0.0,0.0
24/03/2022,00:53:05,-0.000,0.0,0.0,0.0
24/03/2022,00:54:05,0.001,0.0,0.0,0.0
24/03/2022,00:55:05,0.001,0.0,0.0,0.0
24/03/2022,00:56:05,0.001,0.0,0.0,0.0
24/03/2022,00:57:05,0.001,0.0,0.0,0.0
24/03/2022,00:58:05,0.000,0.0,0.0,0.0
24/03/2022,00:59:05,0.001,0.0,0.0,0.0
24/03/2022,01:00:13,0.001,0.0,0.0,0.0
24/03/2022,01:01:04,0.001,0.0,0.0,0.0
24/03/2022,01:02:05,0.001,0.0,0.0,0.0
24/03/2022,01:03:05,0.001,0.0,0.0,0.0
24/03/2022,01:04:05,0.001,0.0,0.0,0.0
24/03/2022,01:05:05,0.001,0.0,0.0,0.0
24/03/2022,01:06:05,0.001,0.0,0.0,0.0
24/03/2022,01:07:05,0.001,0.0,0.0,0.0
24/03/2022,01:08:05,0.001,0.0,0.0,0.0
24/03/2022,01:09:05,0.001,0.0,0.0,0.0
24/03/2022,01:10:13,-0.000,0.0,0.0,0.0
24/03/2022,01:12:06,0.001,0.0,0.0,0.0
24/03/2022,01:13:05,0.001,0.0,0.0,0.0
24/03/2022,01:14:05,0.001,0.0,0.0,0.0
24/03/2022,01:15:05,0.001,0.0,0.0,0.0
24/03/2022,01:16:05,0.001,0.0,0.0,0.0
24/03/2022,01:17:05,0.001,0.0,0.0,0.0
24/03/2022,01:18:05,-0.001,0.0,0.0,0.0
24/03/2022,01:19:05,0.001,0.0,0.0,0.0
24/03/2022,01:20:14,0.001,0.0,0.0,0.0
24/03/2022,01:21:05,0.001,0.0,0.0,0.0
24/03/2022,01:22:06,0.001,0.0,0.0,0.0
24/03/2022,01:23:05,0.001,0.0,0.0,0.0
24/03/2022,01:24:05,0.001,0.0,0.0,0.0
24/03/2022,01:25:05,0.001,0.0,0.0,0.0
24/03/2022,01:26:05,0.001,0.0,0.0,0.0
24/03/2022,01:27:05,0.001,0.0,0.0,0.0
24/03/2022,01:28:05,0.001,0.0,0.0,0.0
24/03/2022,01:29:06,0.001,0.0,0.0,0.0
24/03/2022,01:30:06,0.001,0.0,0.0,0.0
24/03/2022,01:31:05,0.001,0.0,0.0,0.0
24/03/2022,01:32:05,0.001,0.0,0.0,0.0
24/03/2022,01:33:05,0.001,0.0,0.0,0.0
24/03/2022,01:34:05,0.001,0.0,0.0,0.0
24/03/2022,01:35:05,0.001,0.0,0.0,0.0
24/03/2022,01:36:13,0.001,0.0,0.0,0.0
24/03/2022,01:37:05,0.001,0.0,0.0,0.0
24/03/2022,01:38:05,0.001,0.0,0.0,0.0
24/03/2022,01:39:05,0.001,0.0,0.0,0.0
24/03/2022,01:40:05,0.001,0.0,0.0,0.0
24/03/2022,01:41:06,0.001,0.0,0.0,0.0
24/03/2022,01:42:05,0.001,0.0,0.0,0.0
24/03/2022,01:43:05,0.001,0.0,0.0,0.0
24/03/2022,01:44:06,0.001,0.0,0.0,0.0
24/03/2022,01:45:07,0.001,0.0,0.0,0.0
24/03/2022,01:46:13,0.001,0.0,0.0,0.0
24/03/2022,01:47:04,0.001,0.0,0.0,0.0
24/03/2022,01:48:05,0.001,0.0,0.0,0.0
24/03/2022,01:49:05,0.001,0.0,0.0,0.0
24/03/2022,01:50:06,0.002,0.0,0.0,0.0
24/03/2022,01:51:06,0.001,0.0,0.0,0.0
24/03/2022,01:52:05,0.002,0.0,0.0,0.0
24/03/2022,01:53:05,0.001,0.0,0.0,0.0
24/03/2022,01:55:05,0.001,0.0,0.0,0.0
24/03/2022,01:56:06,0.001,0.0,0.0,0.0
24/03/2022,01:57:05,0.001,0.0,0.0,0.0
24/03/2022,01:58:06,0.001,0.0,0.0,0.0
24/03/2022,01:59:14,0.001,0.0,0.0,0.0
24/03/2022,02:01:06,0.001,0.0,0.0,0.0
24/03/2022,02:02:05,0.001,0.0,0.0,0.0
24/03/2022,02:03:06,0.001,0.0,0.0,0.0
24/03/2022,02:04:05,0.001,0.0,0.0,0.0
24/03/2022,02:05:06,0.001,0.0,0.0,0.0
24/03/2022,02:06:06,0.001,0.0,0.0,0.0
24/03/2022,02:07:05,0.001,0.0,0.0,0.0
24/03/2022,02:08:05,0.001,0.0,0.0,0.0
24/03/2022,02:09:05,0.001,0.0,0.0,0.0
24/03/2022,02:10:05,0.001,0.0,0.0,0.0
24/03/2022,02:11:05,0.001,0.0,0.0,0.0
24/03/2022,02:12:14,0.001,0.0,0.0,0.0
24/03/2022,02:13:05,0.001,0.0,0.0,0.0
24/03/2022,02:14:06,0.001,0.0,0.0,0.0
24/03/2022,02:15:05,0.001,0.0,0.0,0.0
24/03/2022,02:16:05,0.001,0.0,0.0,0.0
24/03/2022,02:17:05,0.001,0.0,0.0,0.0
24/03/2022,02:18:07,0.001,0.0,0.0,0.0
24/03/2022,02:19:06,0.001,0.0,0.0,0.0
24/03/2022,02:20:05,0.001,0.0,0.0,0.0
24/03/2022,02:21:05,0.001,0.0,0.0,0.0
24/03/2022,02:22:05,0.001,0.0,0.0,0.0
24/03/2022,02:23:05,0.001,0.0,0.0,0.0
24/03/2022,02:24:19,0.001,0.0,0.0,0.0
24/03/2022,02:26:15,0.001,0.0,0.0,0.0
24/03/2022,02:27:05,0.001,0.0,0.0,0.0
24/03/2022,02:28:06,0.000,0.0,0.0,0.0
24/03/2022,02:29:06,0.001,0.0,0.0,0.0
24/03/2022,02:30:05,0.001,0.0,0.0,0.0
24/03/2022,02:31:06,0.001,0.0,0.0,0.0
24/03/2022,02:32:05,0.001,0.0,0.0,0.0
24/03/2022,02:33:05,0.001,0.0,0.0,0.0
24/03/2022,02:34:07,0.001,0.0,0.0,0.0
24/03/2022,02:35:05,0.002,0.0,0.0,0.0
24/03/2022,02:36:06,0.001,0.0,0.0,0.0
24/03/2022,02:37:05,0.001,0.0,0.0,0.0
24/03/2022,02:38:14,0.001,0.0,0.0,0.0
24/03/2022,02:40:06,0.001,0.0,0.0,0.0
24/03/2022,02:41:14,0.001,0.0,0.0,0.0
24/03/2022,02:42:05,0.001,0.0,0.0,0.0
24/03/2022,02:43:05,0.002,0.0,0.0,0.0
24/03/2022,02:44:06,0.001,0.0,0.0,0.0
24/03/2022,02:44:57,0.001,0.0,0.0,0.0
24/03/2022,02:46:06,0.002,0.0,0.0,0.0
24/03/2022,02:47:06,0.001,0.0,0.0,0.0
24/03/2022,02:48:05,0.001,0.0,0.0,0.0
24/03/2022,02:49:05,0.001,0.0,0.0,0.0
24/03/2022,02:50:06,0.001,0.0,0.0,0.0
24/03/2022,02:51:05,0.001,0.0,0.0,0.0
24/03/2022,02:52:05,0.001,0.0,0.0,0.0
24/03/2022,02:53:05,0.001,0.0,0.0,0.0
24/03/2022,02:54:05,0.002,0.0,0.0,0.0
24/03/2022,02:55:18,0.001,0.0,0.0,0.0
24/03/2022,02:57:06,0.002,0.0,0.0,0.0
24/03/2022,02:58:05,0.001,0.0,0.0,0.0
24/03/2022,02:59:05,0.001,0.0,0.0,0.0
24/03/2022,03:00:06,0.001,0.0,0.0,0.0
24/03/2022,03:01:05,0.002,0.0,0.0,0.0
24/03/2022,03:02:05,0.001,0.0,0.0,0.0
24/03/2022,03:03:05,0.001,0.0,0.0,0.0
24/03/2022,03:04:13,0.001,0.0,0.0,0.0
24/03/2022,03:05:04,0.002,0.0,0.0,0.0
24/03/2022,03:06:05,0.002,0.0,0.0,0.0
24/03/2022,03:07:05,0.000,0.0,0.0,0.0
24/03/2022,03:08:05,0.001,0.0,0.0,0.0
24/03/2022,03:09:06,0.001,0.0,0.0,0.0
24/03/2022,03:10:06,0.001,0.0,0.0,0.0
24/03/2022,03:11:05,0.001,0.0,0.0,0.0
24/03/2022,03:12:05,0.002,0.0,0.0,0.0
24/03/2022,03:13:07,0.001,0.0,0.0,0.0
24/03/2022,03:14:05,0.001,0.0,0.0,0.0
24/03/2022,03:15:05,0.001,0.0,0.0,0.0
24/03/2022,03:16:05,0.001,0.0,0.0,0.0
24/03/2022,03:17:05,0.001,0.0,0.0,0.0
24/03/2022,03:18:13,0.001,0.0,0.0,0.0
24/03/2022,03:20:06,0.001,0.0,0.0,0.0
24/03/2022,03:21:06,0.002,0.0,0.0,0.0
24/03/2022,03:22:05,0.001,0.0,0.0,0.0
24/03/2022,03:23:05,0.001,0.0,0.0,0.0
24/03/2022,03:24:05,0.001,0.0,0.0,0.0
24/03/2022,03:25:06,0.001,0.0,0.0,0.0
24/03/2022,03:26:05,0.003,0.0,0.0,0.0
24/03/2022,03:27:05,0.002,0.0,0.0,0.0
24/03/2022,03:28:06,0.001,0.0,0.0,0.0
24/03/2022,03:29:05,0.001,0.0,0.0,0.0
24/03/2022,03:30:05,0.001,0.0,0.0,0.0
24/03/2022,03:31:13,0.001,0.0,0.0,0.0
24/03/2022,03:32:04,0.001,0.0,0.0,0.0
24/03/2022,03:33:05,0.002,0.0,0.0,0.0
24/03/2022,03:34:05,0.001,0.0,0.0,0.0
24/03/2022,03:35:05,0.003,0.0,0.0,0.0
24/03/2022,03:36:05,0.002,0.0,0.0,0.0
24/03/2022,03:37:06,0.002,0.0,0.0,0.0
24/03/2022,03:38:05,0.003,0.0,0.0,0.0
24/03/2022,03:39:06,0.003,0.0,0.0,0.0
24/03/2022,03:40:05,0.002,0.0,0.0,0.0
24/03/2022,03:41:06,0.002,0.0,0.0,0.0
24/03/2022,03:42:05,0.002,0.0,0.0,0.0
24/03/2022,03:43:06,0.002,0.0,0.0,0.0
24/03/2022,03:44:05,0.001,0.0,0.0,0.0
24/03/2022,03:45:05,0.002,0.0,0.0,0.0
24/03/2022,03:46:05,0.001,0.0,0.0,0.0
24/03/2022,03:47:06,0.001,0.0,0.0,0.0
24/03/2022,03:48:05,0.001,0.0,0.0,0.0
24/03/2022,03:49:05,0.001,0.0,0.0,0.0
24/03/2022,03:50:13,0.002,0.0,0.0,0.0
24/03/2022,03:51:04,0.002,0.0,0.0,0.0
24/03/2022,03:52:05,0.001,0.0,0.0,0.0
24/03/2022,03:53:05,0.002,0.0,0.0,0.0
24/03/2022,03:54:05,0.002,0.0,0.0,0.0
24/03/2022,03:55:06,0.002,0.0,0.0,0.0
24/03/2022,03:56:05,0.002,0.0,0.0,0.0
24/03/2022,03:57:06,0.001,0.0,0.0,0.0
24/03/2022,03:58:06,0.002,0.0,0.0,0.0
24/03/2022,03:59:06,0.002,0.0,0.0,0.0
24/03/2022,04:00:06,0.003,0.0,0.0,0.0
24/03/2022,04:01:05,0.003,0.0,0.0,0.0
24/03/2022,04:02:05,0.002,0.0,0.0,0.0
24/03/2022,04:03:05,0.001,0.0,0.0,0.0
24/03/2022,04:04:05,0.002,0.0,0.0,0.0
24/03/2022,04:05:06,0.001,0.0,0.0,0.0
24/03/2022,04:06:05,0.003,0.0,0.0,0.0
24/03/2022,04:07:05,0.001,0.0,0.0,0.0
24/03/2022,04:08:05,0.002,0.0,0.0,0.0
24/03/2022,04:09:06,0.002,0.0,0.0,0.0
24/03/2022,04:10:05,0.001,0.0,0.0,0.0
24/03/2022,04:11:14,0.002,0.0,0.0,0.0
24/03/2022,04:12:05,0.001,0.0,0.0,0.0
24/03/2022,04:13:06,0.001,0.0,0.0,0.0
24/03/2022,04:14:14,0.002,0.0,0.0,0.0
24/03/2022,04:15:06,0.001,0.0,0.0,0.0
24/03/2022,04:16:05,0.002,0.0,0.0,0.0
24/03/2022,04:17:05,0.003,0.0,0.0,0.0
24/03/2022,04:18:06,0.002,0.0,0.0,0.0
24/03/2022,04:19:05,0.001,0.0,0.0,0.0
24/03/2022,04:20:05,0.001,0.0,0.0,0.0
24/03/2022,04:21:05,0.002,0.0,0.0,0.0
24/03/2022,04:22:14,0.002,0.0,0.0,0.0
24/03/2022,04:24:06,0.002,0.0,0.0,0.0
24/03/2022,04:25:05,0.001,0.0,0.0,0.0
24/03/2022,04:26:06,0.003,0.0,0.0,0.0
24/03/2022,04:27:14,0.002,0.0,0.0,0.0
24/03/2022,04:28:05,0.000,0.0,0.0,0.0
24/03/2022,04:29:06,0.002,0.0,0.0,0.0
24/03/2022,04:30:05,0.003,0.0,0.0,0.0
24/03/2022,04:31:06,0.002,0.0,0.0,0.0
24/03/2022,04:32:06,0.002,0.0,0.0,0.0
24/03/2022,04:33:06,0.003,0.0,0.0,0.0
24/03/2022,04:34:06,0.003,0.0,0.0,0.0
24/03/2022,04:35:06,0.002,0.0,0.0,0.0
24/03/2022,04:36:06,0.002,0.0,0.0,0.0
24/03/2022,04:37:14,0.001,0.0,0.0,0.0
24/03/2022,04:38:06,0.002,0.0,0.0,0.0
24/03/2022,04:39:06,0.001,0.0,0.0,0.0
24/03/2022,04:40:14,0.002,0.0,0.0,0.0
24/03/2022,04:41:05,0.002,0.0,0.0,0.0
24/03/2022,04:42:06,0.002,0.0,0.0,0.0
24/03/2022,04:43:06,0.002,0.0,0.0,0.0
24/03/2022,04:44:06,0.002,0.0,0.0,0.0
24/03/2022,04:45:05,0.002,0.0,0.0,0.0
24/03/2022,04:46:05,0.002,0.0,0.0,0.0
24/03/2022,04:47:05,0.002,0.0,0.0,0.0
24/03/2022,04:48:06,0.002,0.0,0.0,0.0
24/03/2022,04:49:05,0.002,0.0,0.0,0.0
24/03/2022,04:50:14,0.002,0.0,0.0,0.0
24/03/2022,04:51:05,0.002,0.0,0.0,0.0
24/03/2022,04:52:05,0.003,0.0,0.0,0.0
24/03/2022,04:53:05,0.003,0.0,0.0,0.0
24/03/2022,04:54:06,0.002,0.0,0.0,0.0
24/03/2022,04:55:05,0.002,0.0,0.0,0.0
24/03/2022,04:56:05,0.002,0.0,0.0,0.0
24/03/2022,04:57:06,0.003,0.0,0.0,0.0
24/03/2022,04:58:05,0.002,0.0,0.0,0.0
24/03/2022,04:59:05,0.001,0.0,0.0,0.0
24/03/2022,05:00:06,0.001,0.0,0.0,0.0
24/03/2022,05:01:05,0.002,0.0,0.0,0.0
24/03/2022,05:02:06,0.002,0.0,0.0,0.0
24/03/2022,05:03:06,0.002,0.0,0.0,0.0
24/03/2022,05:04:06,0.001,0.0,0.0,0.0
24/03/2022,05:05:06,0.002,0.0,0.0,0.0
24/03/2022,05:06:05,0.002,0.0,0.0,0.0
24/03/2022,05:07:14,0.002,0.0,0.0,0.0
24/03/2022,05:09:06,0.002,0.0,0.0,0.0
24/03/2022,05:10:06,0.002,0.0,0.0,0.0
24/03/2022,05:11:05,0.002,0.0,0.0,0.0
24/03/2022,05:12:05,0.003,0.0,0.0,0.0
24/03/2022,05:13:06,0.002,0.0,0.0,0.0
24/03/2022,05:14:06,0.002,0.0,0.0,0.0
24/03/2022,05:15:06,0.002,0.0,0.0,0.0
24/03/2022,05:16:05,0.003,0.0,0.0,0.0
24/03/2022,05:17:06,0.002,0.0,0.0,0.0
24/03/2022,05:18:06,0.003,0.0,0.0,0.0
24/03/2022,05:19:06,0.003,0.0,0.0,0.0
24/03/2022,05:20:14,0.002,0.0,0.0,0.0
24/03/2022,05:21:05,0.003,0.0,0.0,0.0
24/03/2022,05:22:06,0.002,0.0,0.0,0.0
24/03/2022,05:23:06,0.002,0.0,0.0,0.0
24/03/2022,05:24:07,0.002,0.0,0.0,0.0
24/03/2022,05:25:05,0.001,0.0,0.0,0.0
24/03/2022,05:26:14,0.002,0.0,0.0,0.0
24/03/2022,05:28:06,0.003,0.0,0.0,0.0
24/03/2022,05:29:05,0.002,0.0,0.0,0.0
24/03/2022,05:30:05,0.001,0.0,0.0,0.0
24/03/2022,05:31:06,0.002,0.0,0.0,0.0
24/03/2022,05:32:05,0.003,0.0,0.0,0.0
24/03/2022,05:33:04,0.001,0.0,0.0,0.0
24/03/2022,05:34:06,0.001,0.0,0.0,0.0
24/03/2022,05:35:05,0.002,0.0,0.0,0.0
24/03/2022,05:36:05,0.003,0.0,0.0,0.0
24/03/2022,05:37:05,0.001,0.0,0.0,0.0
24/03/2022,05:38:06,0.002,0.0,0.0,0.0
24/03/2022,05:39:06,0.002,0.0,0.0,0.0
24/03/2022,05:40:06,0.003,0.0,0.0,0.0
24/03/2022,05:41:05,0.001,0.0,0.0,0.0
24/03/2022,05:42:06,0.002,0.0,0.0,0.0
24/03/2022,05:43:06,0.002,0.0,0.0,0.0
24/03/2022,05:44:06,0.002,0.0,0.0,0.0
24/03/2022,05:45:05,0.003,0.0,0.0,0.0
24/03/2022,05:46:06,0.003,0.0,0.0,0.0
24/03/2022,05:47:14,0.003,0.0,0.0,0.0
24/03/2022,05:49:07,0.001,0.0,0.0,0.0
24/03/2022,05:50:07,0.002,0.0,0.0,0.0
24/03/2022,05:51:08,0.003,0.0,0.0,0.0
24/03/2022,05:52:07,0.002,0.0,0.0,0.0
24/03/2022,05:53:15,0.003,0.0,0.0,0.0
24/03/2022,05:54:07,0.003,0.0,0.0,0.0
24/03/2022,05:55:07,0.003,0.0,0.0,0.0
24/03/2022,05:56:07,0.003,0.0,0.0,0.0
24/03/2022,05:57:07,0.003,0.0,0.0,0.0
24/03/2022,05:58:08,0.003,0.0,0.0,0.0
24/03/2022,05:59:07,0.004,0.0,0.0,0.0
24/03/2022,06:00:07,0.003,0.0,0.0,0.0
24/03/2022,06:01:07,0.003,0.0,0.0,0.0
24/03/2022,06:02:07,0.004,0.0,0.0,0.0
24/03/2022,06:03:15,0.005,0.0,0.0,0.0
24/03/2022,06:05:08,0.005,0.0,0.0,0.0
24/03/2022,06:06:07,0.003,0.0,0.0,0.0
24/03/2022,06:07:07,0.005,0.0,0.0,0.0
24/03/2022,06:08:07,0.005,0.0,0.0,0.0
24/03/2022,06:09:07,0.005,0.0,0.0,0.0
24/03/2022,06:10:07,0.005,0.0,0.0,0.0
24/03/2022,06:11:07,0.005,0.0,0.0,0.0
24/03/2022,06:12:07,0.006,0.0,0.0,0.0
24/03/2022,06:13:07,0.006,0.0,0.0,0.0
24/03/2022,06:14:07,0.007,0.0,0.0,0.0
24/03/2022,06:15:07,0.006,0.0,0.0,0.0
24/03/2022,06:16:07,0.007,0.0,0.0,0.0
24/03/2022,06:17:08,0.007,0.0,0.0,0.0
24/03/2022,06:18:07,0.008,0.0,0.001,0.001
24/03/2022,06:19:07,0.007,0.0,0.001,0.0
24/03/2022,06:20:07,0.008,0.0,0.001,0.0
24/03/2022,06:21:07,0.007,0.0,0.001,0.0
24/03/2022,06:22:07,0.009,0.0,0.001,0.0
24/03/2022,06:23:07,0.009,0.0,0.001,0.0
24/03/2022,06:24:15,0.009,0.0,0.001,0.0
24/03/2022,06:25:07,0.009,0.0,0.001,0.0
24/03/2022,06:26:07,0.010,0.0,0.002,0.001
24/03/2022,06:27:15,0.010,0.0,0.002,0.0
24/03/2022,06:28:07,0.011,0.0,0.002,0.0
24/03/2022,06:29:16,0.012,0.0,0.002,0.0
24/03/2022,06:30:05,0.012,0.0,0.002,0.0
24/03/2022,06:31:07,0.012,0.0,0.003,0.001
24/03/2022,06:32:07,0.012,0.0,0.003,0.0
24/03/2022,06:33:07,0.012,0.0,0.003,0.0
24/03/2022,06:34:16,0.013,0.0,0.003,0.0
24/03/2022,06:35:07,0.014,0.0,0.003,0.0
24/03/2022,06:36:07,0.015,0.0,0.004,0.001
24/03/2022,06:37:07,0.015,0.0,0.004,0.0
24/03/2022,06:38:07,0.015,0.0,0.004,0.0
24/03/2022,06:39:07,0.016,0.0,0.004,0.0
24/03/2022,06:40:07,0.016,0.0,0.005,0.001
24/03/2022,06:41:07,0.017,0.0,0.005,0.0
24/03/2022,06:42:07,0.017,0.0,0.005,0.0
24/03/2022,06:43:07,0.018,0.0,0.005,0.0
24/03/2022,06:44:59,0.019,0.0,0.006,0.001
24/03/2022,06:46:07,0.020,0.0,0.006,0.0
24/03/2022,06:47:08,0.020,0.0,0.007,0.001
24/03/2022,06:48:07,0.020,0.0,0.007,0.0
24/03/2022,06:49:07,0.022,0.0,0.007,0.0
24/03/2022,06:50:07,0.023,0.0,0.008,0.001
24/03/2022,06:51:07,0.023,0.0,0.008,0.0
24/03/2022,06:52:07,0.024,0.0,0.009,0.001
24/03/2022,06:53:07,0.024,0.0,0.009,0.0
24/03/2022,06:54:15,0.025,0.0,0.009,0.0
24/03/2022,06:55:07,0.026,0.0,0.01,0.001
24/03/2022,06:56:08,0.027,0.0,0.01,0.0
24/03/2022,06:57:16,0.028,0.0,0.011,0.001
24/03/2022,06:58:07,0.027,0.0,0.011,0.0
24/03/2022,06:59:07,0.029,0.0,0.012,0.001
24/03/2022,07:00:15,0.030,0.0,0.012,0.0
24/03/2022,07:01:07,0.032,0.0,0.013,0.001
24/03/2022,07:02:07,0.032,0.0,0.013,0.0
24/03/2022,07:03:07,0.033,0.0,0.014,0.001
24/03/2022,07:04:08,0.034,0.0,0.014,0.0
24/03/2022,07:05:07,0.034,0.0,0.015,0.001
24/03/2022,07:06:09,0.034,0.0,0.015,0.0
24/03/2022,07:07:07,0.037,0.0,0.016,0.001
24/03/2022,07:08:07,0.037,0.0,0.017,0.001
24/03/2022,07:09:07,0.039,0.0,0.017,0.0
24/03/2022,07:10:08,0.038,0.0,0.018,0.001
24/03/2022,07:11:07,0.041,0.0,0.019,0.001
24/03/2022,07:12:07,0.042,0.0,0.019,0.0
24/03/2022,07:13:07,0.043,0.0,0.02,0.001
24/03/2022,07:14:07,0.044,0.0,0.021,0.001
24/03/2022,07:15:07,0.045,0.0,0.021,0.0
24/03/2022,07:16:07,0.046,0.0,0.022,0.001
24/03/2022,07:17:08,0.049,0.0,0.023,0.001
24/03/2022,07:18:07,0.050,0.0,0.024,0.001
24/03/2022,07:19:08,0.050,0.0,0.025,0.001
24/03/2022,07:20:09,0.051,0.0,0.025,0.0
24/03/2022,07:21:07,0.053,0.0,0.026,0.001
24/03/2022,07:22:07,0.055,0.0,0.027,0.001
24/03/2022,07:23:07,0.055,0.0,0.028,0.001
24/03/2022,07:24:07,0.056,0.0,0.029,0.001
24/03/2022,07:25:07,0.058,0.0,0.03,0.001
24/03/2022,07:26:08,0.060,0.0,0.031,0.001
24/03/2022,07:27:07,0.061,0.0,0.032,0.001
24/03/2022,07:28:07,0.061,0.0,0.033,0.001
24/03/2022,07:29:07,0.064,0.0,0.034,0.001
24/03/2022,07:30:07,0.064,0.0,0.035,0.001
24/03/2022,07:31:15,0.067,0.0,0.036,0.001
24/03/2022,07:32:07,0.069,0.0,0.037,0.001
24/03/2022,07:33:07,0.071,0.0,0.038,0.001
24/03/2022,07:34:16,0.072,0.0,0.04,0.002
24/03/2022,07:35:07,0.073,0.0,0.041,0.001
24/03/2022,07:36:07,0.075,0.0,0.042,0.001
24/03/2022,07:37:08,0.076,0.0,0.043,0.001
24/03/2022,07:38:07,0.078,0.0,0.045,0.002
24/03/2022,07:39:07,0.080,0.0,0.046,0.001
24/03/2022,07:40:06,0.081,0.0,0.047,0.001
24/03/2022,07:41:08,0.084,0.0,0.049,0.002
24/03/2022,07:42:07,0.085,0.0,0.05,0.001
24/03/2022,07:43:07,0.087,0.0,0.052,0.002
24/03/2022,07:44:07,0.089,0.0,0.053,0.001
24/03/2022,07:45:07,0.090,0.0,0.055,0.002
24/03/2022,07:46:07,0.092,0.0,0.056,0.001
24/03/2022,07:47:07,0.094,0.0,0.058,0.002
24/03/2022,07:48:07,0.096,0.0,0.059,0.001
24/03/2022,07:49:07,0.098,0.0,0.061,0.002
24/03/2022,07:50:07,0.100,0.0,0.062,0.001
24/03/2022,07:51:07,0.102,0.0,0.064,0.002
24/03/2022,07:52:07,0.105,0.0,0.066,0.002
24/03/2022,07:53:07,0.106,0.0,0.068,0.002
24/03/2022,07:54:07,0.107,0.0,0.069,0.001
24/03/2022,07:55:07,0.111,0.0,0.071,0.002
24/03/2022,07:56:08,0.112,0.0,0.073,0.002
24/03/2022,07:57:08,0.115,0.0,0.075,0.002
24/03/2022,07:58:07,0.116,0.0,0.077,0.002
24/03/2022,07:59:07,0.119,0.0,0.079,0.002
24/03/2022,08:00:07,0.121,0.0,0.081,0.002
24/03/2022,08:01:07,0.124,0.0,0.083,0.002
24/03/2022,08:02:07,0.127,0.0,0.085,0.002
24/03/2022,08:03:07,0.128,0.0,0.087,0.002
24/03/2022,08:04:07,0.131,0.0,0.089,0.002
24/03/2022,08:05:15,0.134,0.0,0.092,0.003
24/03/2022,08:06:07,0.136,0.0,0.094,0.002
24/03/2022,08:07:07,0.138,0.0,0.096,0.002
24/03/2022,08:08:08,0.141,0.0,0.098,0.002
24/03/2022,08:09:07,0.142,0.0,0.101,0.003
24/03/2022,08:10:07,0.146,0.0,0.103,0.002
24/03/2022,08:11:07,0.148,0.0,0.106,0.003
24/03/2022,08:12:07,0.151,0.0,0.108,0.002
24/03/2022,08:13:07,0.154,0.0,0.111,0.003
24/03/2022,08:14:08,0.157,0.0,0.113,0.002
24/03/2022,08:15:16,0.160,0.0,0.116,0.003
24/03/2022,08:16:07,0.162,0.0,0.119,0.003
24/03/2022,08:17:07,0.165,0.0,0.121,0.002
24/03/2022,08:18:07,0.168,0.0,0.124,0.003
24/03/2022,08:19:08,0.171,0.0,0.127,0.003
24/03/2022,08:20:07,0.173,0.0,0.13,0.003
24/03/2022,08:21:15,0.177,0.0,0.133,0.003
24/03/2022,08:22:07,0.180,0.0,0.136,0.003
24/03/2022,08:23:07,0.182,0.0,0.139,0.003
24/03/2022,08:24:07,0.185,0.0,0.142,0.003
24/03/2022,08:25:07,0.187,0.0,0.145,0.003
24/03/2022,08:26:07,0.190,0.0,0.148,0.003
24/03/2022,08:27:07,0.193,0.0,0.151,0.003
24/03/2022,08:28:07,0.197,0.0,0.154,0.003
24/03/2022,08:29:08,0.200,0.0,0.158,0.004
24/03/2022,08:30:07,0.203,0.0,0.161,0.003
24/03/2022,08:31:07,0.206,0.0,0.164,0.003
24/03/2022,08:32:07,0.209,0.0,0.168,0.004
24/03/2022,08:33:07,0.211,0.0,0.171,0.003
24/03/2022,08:34:07,0.216,0.0,0.175,0.004
24/03/2022,08:35:07,0.219,1.0,0.179,0.004
24/03/2022,08:36:07,0.222,1.0,0.182,0.003
24/03/2022,08:37:08,0.225,1.0,0.186,0.004
24/03/2022,08:38:08,0.228,1.0,0.19,0.004
24/03/2022,08:39:16,0.232,1.0,0.194,0.004
24/03/2022,08:40:08,0.235,1.0,0.198,0.004
24/03/2022,08:41:07,0.239,1.0,0.201,0.003
24/03/2022,08:42:08,0.242,1.0,0.205,0.004
24/03/2022,08:43:07,0.245,1.0,0.21,0.005
24/03/2022,08:44:07,0.248,1.0,0.214,0.004
24/03/2022,08:45:16,0.253,1.0,0.218,0.004
24/03/2022,08:46:06,0.256,1.0,0.222,0.004
24/03/2022,08:47:07,0.260,1.0,0.226,0.004
24/03/2022,08:48:07,0.262,1.0,0.231,0.005
24/03/2022,08:49:07,0.266,1.0,0.235,0.004
24/03/2022,08:50:07,0.268,1.0,0.24,0.005
24/03/2022,08:51:07,0.273,1.0,0.244,0.004
24/03/2022,08:52:07,0.276,1.0,0.248,0.004
24/03/2022,08:54:09,0.284,1.0,0.258,0.01
24/03/2022,08:55:16,0.288,1.0,0.263,0.005
24/03/2022,08:56:07,0.291,1.0,0.268,0.005
24/03/2022,08:57:10,0.294,1.0,0.273,0.005
24/03/2022,08:58:07,0.299,1.0,0.277,0.004
24/03/2022,08:59:07,0.303,1.0,0.282,0.005
24/03/2022,09:00:08,0.306,1.0,0.287,0.005
24/03/2022,09:01:08,0.311,1.0,0.293,0.006
24/03/2022,09:02:08,0.315,1.0,0.298,0.005
24/03/2022,09:03:07,0.319,1.0,0.303,0.005
24/03/2022,09:04:07,0.323,1.0,0.308,0.005
24/03/2022,09:05:07,0.327,1.0,0.314,0.006
24/03/2022,09:06:07,0.331,1.0,0.319,0.005
24/03/2022,09:07:06,0.335,1.0,0.325,0.006
24/03/2022,09:08:15,0.339,1.0,0.331,0.006
24/03/2022,09:10:08,0.347,1.0,0.342,0.011
24/03/2022,09:11:06,0.351,1.0,0.348,0.006
24/03/2022,09:12:06,0.355,1.0,0.353,0.005
24/03/2022,09:13:06,0.359,1.0,0.359,0.006
24/03/2022,09:14:06,0.363,1.0,0.365,0.006
24/03/2022,09:15:06,0.367,1.0,0.372,0.007
24/03/2022,09:16:06,0.370,1.0,0.378,0.006
24/03/2022,09:17:06,0.374,1.0,0.384,0.006
24/03/2022,09:18:06,0.377,1.0,0.39,0.006
24/03/2022,09:19:14,0.381,1.0,0.397,0.007
24/03/2022,09:21:07,0.388,1.0,0.409,0.012
24/03/2022,09:22:06,0.393,1.0,0.416,0.007
24/03/2022,09:23:06,0.398,1.0,0.422,0.006
24/03/2022,09:24:06,0.403,1.0,0.429,0.007
24/03/2022,09:25:05,0.406,1.0,0.436,0.007
24/03/2022,09:26:06,0.412,1.0,0.443,0.007
24/03/2022,09:27:06,0.414,1.0,0.449,0.006
24/03/2022,09:28:06,0.418,1.0,0.456,0.007
24/03/2022,09:29:06,0.422,1.0,0.463,0.007
24/03/2022,09:30:14,0.426,1.0,0.471,0.008
24/03/2022,09:31:05,0.430,1.0,0.478,0.007
24/03/2022,09:32:06,0.436,1.0,0.485,0.007
24/03/2022,09:33:06,0.439,1.0,0.492,0.007
24/03/2022,09:34:06,0.443,1.0,0.499,0.007
24/03/2022,09:35:06,0.447,1.0,0.507,0.008
24/03/2022,09:36:07,0.450,1.0,0.514,0.007
24/03/2022,09:37:18,0.456,1.0,0.523,0.009
24/03/2022,09:39:07,0.463,1.0,0.537,0.014
24/03/2022,09:40:06,0.467,1.0,0.545,0.008
24/03/2022,09:41:06,0.472,1.0,0.553,0.008
24/03/2022,09:42:06,0.474,1.0,0.561,0.008
24/03/2022,09:43:06,0.479,1.0,0.569,0.008
24/03/2022,09:44:14,0.484,1.0,0.578,0.009
24/03/2022,09:46:07,0.491,1.0,0.593,0.015
24/03/2022,09:47:06,0.494,1.0,0.601,0.008
24/03/2022,09:48:06,0.497,1.0,0.609,0.008
24/03/2022,09:49:06,0.503,1.0,0.618,0.009
24/03/2022,09:50:06,0.504,1.0,0.626,0.008
24/03/2022,09:51:05,0.509,1.0,0.635,0.009
24/03/2022,09:52:06,0.513,1.0,0.643,0.008
24/03/2022,09:53:06,0.519,1.0,0.652,0.009
24/03/2022,09:54:06,0.523,1.0,0.66,0.008
24/03/2022,09:55:06,0.529,1.0,0.669,0.009
24/03/2022,09:56:06,0.535,1.0,0.678,0.009
24/03/2022,09:57:06,0.539,1.0,0.687,0.009
24/03/2022,09:58:06,0.542,1.0,0.696,0.009
24/03/2022,09:59:06,0.544,1.0,0.705,0.009
24/03/2022,10:00:06,0.550,1.0,0.714,0.009
24/03/2022,10:01:06,0.555,1.0,0.723,0.009
24/03/2022,10:02:06,0.560,1.0,0.733,0.01
24/03/2022,10:03:06,0.563,1.0,0.742,0.009
24/03/2022,10:04:06,0.567,1.0,0.751,0.009
24/03/2022,10:05:06,0.570,1.0,0.761,0.01
24/03/2022,10:06:06,0.573,1.0,0.77,0.009
24/03/2022,10:07:06,0.579,1.0,0.78,0.01
24/03/2022,10:08:06,0.585,1.0,0.79,0.01
24/03/2022,10:09:06,0.588,1.0,0.799,0.009
24/03/2022,10:10:14,0.592,1.0,0.811,0.012
24/03/2022,10:11:05,0.594,1.0,0.819,0.008
24/03/2022,10:12:06,0.598,1.0,0.829,0.01
24/03/2022,10:13:06,0.605,1.0,0.839,0.01
24/03/2022,10:14:06,0.609,1.0,0.849,0.01
24/03/2022,10:15:06,0.614,1.0,0.859,0.01
24/03/2022,10:16:06,0.616,1.0,0.87,0.011
24/03/2022,10:17:15,0.621,1.0,0.881,0.011
24/03/2022,10:18:06,0.624,1.0,0.89,0.009
24/03/2022,10:19:06,0.625,1.0,0.901,0.011
24/03/2022,10:20:07,0.626,1.0,0.911,0.01
24/03/2022,10:21:06,0.632,1.0,0.922,0.011
24/03/2022,10:22:06,0.638,1.0,0.932,0.01
24/03/2022,10:23:06,0.642,1.0,0.943,0.011
24/03/2022,10:24:15,0.643,1.0,0.955,0.012
24/03/2022,10:26:07,0.649,1.0,0.975,0.02
24/03/2022,10:27:06,0.655,2.0,0.986,0.011
24/03/2022,10:28:06,0.649,1.0,0.997,0.011
24/03/2022,10:29:06,0.651,1.0,1.008,0.011
24/03/2022,10:30:06,0.655,2.0,1.018,0.01
24/03/2022,10:31:06,0.656,2.0,1.029,0.011